Regional Weather Roundup
Issued by NWS Spokane, WA

Home | Current Version | Previous Version | Text Only | Print | Product List | Glossary On
Versions: 1 2 3 4 5 6 7 8 9 10 11 12 13 14 15 16 17 18 19 20 21 22 23 24 25 26 27 28 29 30 31 32 33 34 35 36 37 38 39 40 41 42 43 44 45 46 47 48 49 50
000
NZUS01 KOTX 021710
RWROTX
EASTERN WASHINGTON/NORTHERN IDAHO ROUNDUP
NATIONAL WEATHER SERVICE, SPOKANE WA
1000 AM PDT TUE SEP 02 2014

Note: "fair" indicated few or no clouds below 12,000 feet with no
significant weather and/or obstructions to visibility.

...NORTHEAST WASHINGTON AND NORTHERN IDAHO PANHANDLE...

CITY           SKY/WX    TMP DP  RH WIND       PRES   REMARKS
SPOKANE INTL   PTSUNNY   63  42  46 SW14      29.85S
SPOKANE DOWNTO MOSUNNY   66  42  41 SW9       29.85F
COEUR D ALENE  MOSUNNY   66  45  45 SW8       29.84F
DEER PARK      SUNNY     62  42  47 S7        29.85F
SANDPOINT      PTSUNNY   63  45  51 SW5       29.84S

...SOUTHEAST WASHINGTON AND SOUTHERN IDAHO PANHANDLE...

CITY           SKY/WX    TMP DP  RH WIND       PRES   REMARKS
WALLA WALLA    SUNNY     72  48  42 SW17      29.87F
PULLMAN/MOSCOW SUNNY     66  44  45 VRB6      29.89F
LEWISTON       SUNNY     66  45  46 N5        29.85F
LOWELL           N/A     60  46  59 N3        29.91F

...COLUMBIA BASIN...

CITY           SKY/WX    TMP DP  RH WIND       PRES   REMARKS
EPHRATA        SUNNY     70  44  39 CALM      29.80F
MOSES LAKE     MOSUNNY   70  48  45 SW8       29.82F
TRI CITIES     SUNNY     68  52  56 W5        29.84F
HERMISTON      SUNNY     72  52  49 W13       29.85S
PENDLETON      SUNNY     71  49  45 W13G21    29.86F

...EAST SLOPES CASCADES...

CITY           SKY/WX    TMP DP  RH WIND       PRES   REMARKS
THE DALLES     SUNNY     72  53  51 NW17G23   29.85F
YAKIMA         SUNNY     70  47  43 NE3       29.85F
ELLENSBURG     SUNNY     70  47  43 NW23      29.84F
STAMPEDE PASS  CLOUDY    48  46  93 VRB6      29.95S
WENATCHEE      SUNNY     71  43  36 W10       29.81F
OMAK           SUNNY     66  42  41 CALM      29.80F

...SOUTHERN BRITISH COLUMBIA...

CITY           SKY/WX    TMP DP  RH WIND       PRES   REMARKS
PENTICTON      PTSUNNY   66  48  52 VRB2      29.79F

...WESTERN MONTANA...

CITY           SKY/WX    TMP DP  RH WIND       PRES   REMARKS
MISSOULA       SUNNY     59  42  53 SE5       29.93F

...NEIGHBORING CITIES...

CITY           SKY/WX    TMP DP  RH WIND       PRES   REMARKS
SEATTLE        CLOUDY    61  55  81 SW5       29.94S



USA.gov is the U.S. government's official web portal to all federal, state and local government web resources and services.